{"data":{"norad_id":66152,"epoch":"2026-09-20T22:39:51.858144Z","epoch_age_seconds":61977,"freshness":"FRESH","line1":"1 66152U 25240G   26263.94435021  .00021169  00000+0  63578-3 0  9990","line2":"2 66152  53.1551 231.5655 0000859  56.7512 303.3573 15.34405372 51944","mean_motion":15.34405372,"eccentricity":8.59e-5,"inclination_deg":53.1551,"raan_deg":231.5655,"arg_perigee_deg":56.7512,"mean_anomaly_deg":303.3573,"bstar":0.00063578,"rev_number":5194,"period_min":93.847429517472,"perigee_km":462.09964673249,"apogee_km":463.27490034269,"semimajor_km":6840.8242735376,"source":"CELESTRAK","updated_at":"2026-09-21T09:00:35.813374Z"}}